Regional Weather Roundup
Issued by NWS

Home | Current Version | Previous Version | Text Only | Print | Product List | Glossary Off
Versions: 1 2 3 4 5 6 7 8 9 10 11 12 13 14 15 16 17 18 19 20 21 22 23 24 25 26 27 28 29 30 31 32 33 34 35 36 37 38 39 40 41 42 43 44 45 46 47 48 49 50

000
ASUS43 KDTX 272010
RWRMI
MICHIGAN HOURLY REGIONAL WEATHER ROUNDUP
NATIONAL WEATHER SERVICE DETROIT/PONTIAC MI
400 PM EDT MON APR 27 2015

NOTE: "FAIR" INDICATES FEW OR NO CLOUDS BELOW 12,000 FEET WITH NO
SIGNIFICANT WEATHER AND/OR OBSTRUCTION TO VISIBILITY.

MIZ047>049-052>055-059>063-066>070-074>076-081>083-272100-
SOUTHEAST LOWER MICHIGAN

CITY           SKY/WX    TMP DP  RH WIND       PRES   REMARKS
ADRIAN         CLOUDY    49  36  61 N13       30.04F
ALMA           CLOUDY    52  33  48 NW8       30.06S
ANN ARBOR      CLOUDY    50  35  56 N10       30.03F
BAD AXE        CLOUDY    47  35  63 N14       30.04S
DETROIT CITY   CLOUDY    49  34  56 N13       30.02S
DETROIT        CLOUDY    51  34  52 NW8       30.03S
FLINT          PTSUNNY   52  33  48 N14G24    30.05R
GROSSE ILE     CLOUDY    50  34  53 N8        30.01S
HILLSDALE      CLOUDY    47  36  66 N10       30.04S
HOWELL         PTSUNNY   51  32  49 N7        30.03S

CITY           SKY/WX    TMP DP  RH WIND       PRES   REMARKS
JACKSON        CLOUDY    50  34  54 N6        30.04F
LAMBERTVILLE   CLOUDY    50  36  57 N12       30.03S
LANSING        CLOUDY    49  33  54 N9        30.07R
LAPEER         NOT AVBL
MASON          CLOUDY    49  33  54 N7        30.05S
MONROE         CLOUDY    48  36  61 CALM      30.01F
MT. CLEMENS    PTSUNNY   50  36  59 NW12      29.99F
PONTIAC        PTSUNNY   48  34  58 N10G20    30.02S
PORT HOPE        N/A     45  36  70 N7        30.03S
PORT HURON     PTSUNNY   46  37  71 N9G20     30.02F
TRI CITIES     PTSUNNY   54  34  46 NE10G17   30.05F
YPSILANTI      CLOUDY    54  35  48 NW13      30.03S
$$
MIZ043>046-050>051-056>058-064>065-071>073-077>080-272100-
SOUTHWEST LOWER MICHIGAN

CITY           SKY/WX    TMP DP  RH WIND       PRES   REMARKS
BATTLE CREEK   CLOUDY    50  34  54 N13       30.06S
BENTON HARBOR  MOSUNNY   46  35  65 N12G24    30.09S
BIG RAPIDS     PTSUNNY   54  33  44 N8        30.06S
COLDWATER      CLOUDY    49  33  55 NE14      30.04R
HOLLAND        CLOUDY    49  35  58 NW10G20   30.09S
GRAND RAPIDS   PTSUNNY   52  32  46 N10       30.07S
KALAMAZOO      CLOUDY    52  34  50 NE10      30.06S
MARSHALL       CLOUDY    47  33  58 N3        30.05S
MUSKEGON       PTSUNNY   54  36  50 W13       30.07F
$$
MIZ016>042-272100-
NORTHERN LOWER MICHIGAN

CITY           SKY/WX    TMP DP  RH WIND       PRES   REMARKS
ALPENA         CLOUDY    52  31  44 N14       30.06S
BEAVER ISLAND  CLOUDY    53  32  44 N7G18     30.09F
BELLAIRE       CLOUDY    53  33  48 N8        30.08S
CADILLAC       CLOUDY    50  33  52 N3        30.05F
CHARLEVOIX     CLOUDY    48  35  59 NW7       30.12F
FRANKFORT      PTCLDY    52  31  44 N10       30.11S
GAYLORD        CLOUDY    50  32  50 N7G18     30.05S
GRAYLING       CLOUDY    52  32  46 CALM      30.05S
HARBOR SPRINGS CLOUDY    51  33  48 N3        30.07F
HOUGHTON LAKE  CLOUDY    53  32  44 NW8       30.04S
MANISTEE       MOSUNNY   46  32  57 NW13G18   30.11S
OSCODA         CLOUDY    51  33  49 NE13      30.03F
PELLSTON       CLOUDY    51  33  50 NW10      30.08S
TRAVERSE CITY  PTSUNNY   51  33  50 N14       30.09S
$$
MIZ007>008-015-272100-
EASTERN UPPER MICHIGAN

CITY           SKY/WX    TMP DP  RH WIND       PRES   REMARKS
KINROSS        CLOUDY    46  36  66 NW17      30.07S
MACKINAC ISLAN CLOUDY    51  33  50 N8        30.08R
NEWBERRY       CLOUDY    48  35  60 N10G17    30.10S
S. S. MARIE    CLOUDY    49  33  54 NW13G22   30.07S
$$
MIZ004>006-011>014-085-272100-
CENTRAL UPPER MICHIGAN

CITY           SKY/WX    TMP DP  RH WIND       PRES   REMARKS
MANISTIQUE     MOSUNNY   53  31  44 N14G20    30.10
ESCANABA       SUNNY     55  34  44 N10G18    30.12S
MENOMINEE      SUNNY     50  34  53 E10       30.12F
SAWYER-GWINN   SUNNY     45  32  61 N13       30.15R
$$
MIZ001>003-009>011-084-272100-
WESTERN UPPER MICHIGAN

CITY           SKY/WX    TMP DP  RH WIND       PRES   REMARKS
IRON MOUNTAIN  SUNNY     62  27  26 N14G21    30.09S
HOUGHTON       SUNNY     51  32  48 N12       30.17S
COPPER HARBOR    N/A     40  32  73 N6        30.19S
IRONWOOD       SUNNY     54  28  37 N6        30.18S
$$

ABBREVIATIONS USED IN REMARKS
   TC - TEMPERATURE IN CELSIUS
  WCI - WIND CHILL INDEX
   HX - HEAT INDEX
  VSB - VISIBILITY



USA.gov is the U.S. government's official web portal to all federal, state and local government web resources and services.